User: anonymous   Login
Location: Unspecified
(0.0000°N, 0.0000°E)
Time: 18:54:52
(UTC+00:00)
Language:

Kosmos-1759 - Orbit

View from above orbital plane
View from above orbital plane
View from above satellite
View from above satellite

Ground track
Ground track

The orbit data is extracted from the following two-line orbital elements,

1 16798U 86047A   18015.82552788  .00000011  00000-0 -46308-5 0  9995
2 16798  82.9225 313.0609 0024307 183.0677 204.9230 13.74943848584447
Epoch (UTC): 15 January 2018 19:48:45
Eccentricity: 0.0024307
inclination: 82.9225°
perigee height: 964 km
apogee height: 1000 km
right ascension of ascending node: 313.0609°
argument of perigee: 183.0677°
revolutions per day: 13.74943848
mean anomaly at epoch: 204.9230°
orbit number at epoch: 58444

The dashed part of the orbit path shows where the satellite is in the earth's shadow,  

DLR